Time,TemperatureF,DewpointF,PressureIn,WindDirection,WindDirectionDegrees,WindSpeedMPH,WindSpeedGustMPH,Humidity,HourlyPrecipIn,Conditions,Clouds,dailyrainin,SoftwareType,DateUTC
2013-01-05 00:02:00,14.2,-1.9,23.65,WSW,248,0.0,0.0,48,0.00,,---,0.00,VWS V14.01,2013-01-05 08:02:00,
2013-01-05 00:07:00,14.0,-1.6,23.65,SW,225,0.0,0.0,49,0.00,,---,0.00,VWS V14.01,2013-01-05 08:07:00,
2013-01-05 00:12:00,13.6,-2.0,23.65,SW,225,0.0,0.0,49,0.00,,---,0.00,VWS V14.01,2013-01-05 08:12:00,
2013-01-05 00:17:00,13.6,-2.0,23.65,WSW,248,0.0,0.0,49,0.00,,---,0.00,VWS V14.01,2013-01-05 08:17:00,
2013-01-05 00:22:00,13.5,-2.1,23.65,SW,225,0.0,0.0,49,0.00,,---,0.00,VWS V14.01,2013-01-05 08:22:00,
2013-01-05 00:27:00,13.3,-2.3,23.65,WSW,248,0.0,0.0,49,0.00,,---,0.00,VWS V14.01,2013-01-05 08:27:00,
2013-01-05 00:32:00,13.3,-2.3,23.65,SW,225,0.0,0.0,49,0.00,,---,0.00,VWS V14.01,2013-01-05 08:32:00,
2013-01-05 00:37:00,13.1,-2.5,23.65,SW,225,0.0,0.0,49,0.00,,---,0.00,VWS V14.01,2013-01-05 08:37:00,
2013-01-05 00:42:00,13.1,-2.5,23.65,SW,225,0.0,0.0,49,0.00,,---,0.00,VWS V14.01,2013-01-05 08:42:00,
2013-01-05 00:47:00,12.9,-2.6,23.65,SW,225,0.0,0.0,49,0.00,,---,0.00,VWS V14.01,2013-01-05 08:47:00,
2013-01-05 00:52:00,12.9,-2.6,23.65,SW,225,0.0,0.0,49,0.00,,---,0.00,VWS V14.01,2013-01-05 08:52:00,
2013-01-05 00:57:00,12.7,-2.8,23.65,WSW,248,0.0,0.0,49,0.00,,---,0.00,VWS V14.01,2013-01-05 08:57:00,
2013-01-05 01:02:00,12.7,-2.8,23.65,WSW,248,0.0,0.0,49,0.00,,---,0.00,VWS V14.01,2013-01-05 09:02:00,
2013-01-05 01:07:00,12.7,-2.8,23.65,WSW,248,0.0,0.0,49,0.00,,---,0.00,VWS V14.01,2013-01-05 09:07:00,
2013-01-05 01:12:00,12.7,-2.8,23.65,WSW,248,0.0,0.0,49,0.00,,---,0.00,VWS V14.01,2013-01-05 09:12:00,
2013-01-05 01:17:00,12.7,-2.8,23.65,WSW,248,0.0,0.0,49,0.00,,---,0.00,VWS V14.01,2013-01-05 09:17:00,
2013-01-05 01:22:00,12.7,-2.8,23.65,West,270,0.0,0.0,49,0.00,,---,0.00,VWS V14.01,2013-01-05 09:22:00,
2013-01-05 01:27:00,13.1,-2.5,23.68,SW,225,0.0,0.0,49,0.00,,---,0.00,VWS V14.01,2013-01-05 09:27:00,
2013-01-05 01:32:00,13.1,-2.5,23.68,WSW,248,0.0,0.0,49,0.00,,---,0.00,VWS V14.01,2013-01-05 09:32:00,
2013-01-05 01:37:00,13.3,-2.3,23.68,WSW,248,0.0,0.0,49,0.00,,---,0.00,VWS V14.01,2013-01-05 09:37:00,
2013-01-05 01:42:00,12.9,-2.6,23.68,WNW,292,0.0,0.0,49,0.00,,---,0.00,VWS V14.01,2013-01-05 09:42:00,
2013-01-05 01:47:00,13.3,-2.3,23.68,West,270,0.0,0.0,49,0.00,,---,0.00,VWS V14.01,2013-01-05 09:47:00,
2013-01-05 01:52:00,13.3,-2.3,23.68,WSW,248,0.0,0.0,49,0.00,,---,0.00,VWS V14.01,2013-01-05 09:52:00,
2013-01-05 01:57:00,13.3,-2.3,23.68,WSW,248,0.0,0.0,49,0.00,,---,0.00,VWS V14.01,2013-01-05 09:57:00,
2013-01-05 02:02:00,12.9,-2.6,23.68,WSW,248,0.0,0.0,49,0.00,,---,0.00,VWS V14.01,2013-01-05 10:02:00,
2013-01-05 02:07:00,12.7,-2.8,23.68,WSW,248,0.0,0.0,49,0.00,,---,0.00,VWS V14.01,2013-01-05 10:07:00,
2013-01-05 02:12:00,12.7,-2.8,23.68,SW,225,0.0,0.0,49,0.00,,---,0.00,VWS V14.01,2013-01-05 10:12:00,
2013-01-05 02:17:00,12.7,-2.8,23.68,WSW,248,0.0,0.0,49,0.00,,---,0.00,VWS V14.01,2013-01-05 10:17:00,
2013-01-05 02:22:00,12.7,-2.8,23.68,WSW,248,0.0,0.0,49,0.00,,---,0.00,VWS V14.01,2013-01-05 10:22:00,
2013-01-05 02:27:00,12.7,-2.8,23.68,SSW,202,0.0,0.0,49,0.00,,---,0.00,VWS V14.01,2013-01-05 10:27:00,
2013-01-05 02:32:00,12.6,-3.0,23.68,SSW,202,0.0,0.0,49,0.00,,---,0.00,VWS V14.01,2013-01-05 10:32:00,
2013-01-05 02:37:00,12.6,-3.0,23.68,SSW,202,0.0,0.0,49,0.00,,---,0.00,VWS V14.01,2013-01-05 10:37:00,
2013-01-05 02:42:00,12.6,-3.0,23.68,SSW,202,0.0,0.0,49,0.00,,---,0.00,VWS V14.01,2013-01-05 10:42:00,
2013-01-05 02:47:00,12.4,-3.1,23.68,SW,225,0.0,0.0,49,0.00,,---,0.00,VWS V14.01,2013-01-05 10:47:00,
2013-01-05 02:52:00,12.2,-3.3,23.68,WSW,248,0.0,0.0,49,0.00,,---,0.00,VWS V14.01,2013-01-05 10:52:00,
2013-01-05 02:57:00,12.2,-3.3,23.68,SSW,202,0.0,0.0,49,0.00,,---,0.00,VWS V14.01,2013-01-05 10:57:00,
2013-01-05 03:02:00,12.4,-3.1,23.68,SSW,202,0.0,0.0,49,0.00,,---,0.00,VWS V14.01,2013-01-05 11:02:00,
2013-01-05 03:07:00,12.2,-3.3,23.68,SSW,202,0.0,0.0,49,0.00,,---,0.00,VWS V14.01,2013-01-05 11:07:00,
2013-01-05 03:12:00,12.0,-3.5,23.65,WSW,248,0.0,0.0,49,0.00,,---,0.00,VWS V14.01,2013-01-05 11:12:00,
2013-01-05 03:17:00,12.0,-3.5,23.65,SW,225,0.0,0.0,49,0.00,,---,0.00,VWS V14.01,2013-01-05 11:17:00,
2013-01-05 03:22:00,12.0,-3.5,23.65,WSW,248,0.0,0.0,49,0.00,,---,0.00,VWS V14.01,2013-01-05 11:22:00,
2013-01-05 03:27:00,12.0,-3.5,23.68,SW,225,0.0,0.0,49,0.00,,---,0.00,VWS V14.01,2013-01-05 11:27:00,
2013-01-05 03:32:00,12.0,-3.5,23.68,SW,225,0.0,0.0,49,0.00,,---,0.00,VWS V14.01,2013-01-05 11:32:00,
2013-01-05 03:37:00,12.0,-3.5,23.68,SW,225,0.0,0.0,49,0.00,,---,0.00,VWS V14.01,2013-01-05 11:37:00,
2013-01-05 03:42:00,12.0,-3.5,23.65,WSW,248,0.0,0.0,49,0.00,,---,0.00,VWS V14.01,2013-01-05 11:42:00,
2013-01-05 03:47:00,11.8,-3.6,23.65,WSW,248,0.0,0.0,49,0.00,,---,0.00,VWS V14.01,2013-01-05 11:47:00,
2013-01-05 03:52:00,11.8,-3.6,23.65,WSW,248,0.0,0.0,49,0.00,,---,0.00,VWS V14.01,2013-01-05 11:52:00,
2013-01-05 03:57:00,11.8,-3.6,23.68,SW,225,0.0,0.0,49,0.00,,---,0.00,VWS V14.01,2013-01-05 11:57:00,
2013-01-05 04:02:00,11.8,-3.6,23.68,WSW,248,0.0,0.0,49,0.00,,---,0.00,VWS V14.01,2013-01-05 12:02:00,
2013-01-05 04:07:00,12.0,-3.5,23.68,SSW,202,0.0,0.0,49,0.00,,---,0.00,VWS V14.01,2013-01-05 12:07:00,
2013-01-05 04:12:00,11.8,-3.6,23.65,WSW,248,0.9,0.9,49,0.00,,---,0.00,VWS V14.01,2013-01-05 12:12:00,
2013-01-05 04:17:00,11.7,-3.8,23.65,WSW,248,0.0,1.1,49,0.00,,---,0.00,VWS V14.01,2013-01-05 12:17:00,
2013-01-05 04:22:00,11.7,-3.8,23.65,WSW,248,0.0,0.0,49,0.00,,---,0.00,VWS V14.01,2013-01-05 12:22:00,
2013-01-05 04:27:00,11.3,-4.1,23.65,WSW,248,0.0,0.0,49,0.00,,---,0.00,VWS V14.01,2013-01-05 12:27:00,
2013-01-05 04:32:00,11.3,-4.1,23.65,WSW,248,0.0,0.0,49,0.00,,---,0.00,VWS V14.01,2013-01-05 12:32:00,
2013-01-05 04:37:00,11.1,-4.3,23.65,SSW,202,0.0,0.0,49,0.00,,---,0.00,VWS V14.01,2013-01-05 12:37:00,
2013-01-05 04:42:00,11.3,-4.1,23.65,SW,225,0.0,0.0,49,0.00,,---,0.00,VWS V14.01,2013-01-05 12:42:00,
2013-01-05 04:47:00,11.3,-4.1,23.65,SSW,202,0.0,0.0,49,0.00,,---,0.00,VWS V14.01,2013-01-05 12:47:00,
2013-01-05 04:52:00,11.3,-4.1,23.65,SSW,202,0.0,0.0,49,0.00,,---,0.00,VWS V14.01,2013-01-05 12:52:00,
2013-01-05 04:57:00,11.3,-4.1,23.65,SW,225,0.0,0.0,49,0.00,,---,0.00,VWS V14.01,2013-01-05 12:57:00,
2013-01-05 05:02:00,11.1,-4.3,23.65,WSW,248,0.0,0.0,49,0.00,,---,0.00,VWS V14.01,2013-01-05 13:02:00,
2013-01-05 05:07:00,11.1,-4.3,23.65,SSW,202,0.0,0.0,49,0.00,,---,0.00,VWS V14.01,2013-01-05 13:07:00,
2013-01-05 05:12:00,11.1,-4.3,23.65,WSW,248,0.0,0.0,49,0.00,,---,0.00,VWS V14.01,2013-01-05 13:12:00,
2013-01-05 05:17:00,11.1,-4.3,23.65,SW,225,0.0,0.0,49,0.00,,---,0.00,VWS V14.01,2013-01-05 13:17:00,
2013-01-05 05:22:00,11.1,-4.3,23.65,West,270,0.0,0.0,49,0.00,,---,0.00,VWS V14.01,2013-01-05 13:22:00,
2013-01-05 05:27:00,11.1,-4.3,23.65,WSW,248,0.0,0.0,49,0.00,,---,0.00,VWS V14.01,2013-01-05 13:27:00,
2013-01-05 05:32:00,10.9,-4.5,23.65,WSW,248,0.0,0.0,49,0.00,,---,0.00,VWS V14.01,2013-01-05 13:32:00,
2013-01-05 05:37:00,11.1,-4.3,23.65,WSW,248,0.0,0.0,49,0.00,,---,0.00,VWS V14.01,2013-01-05 13:37:00,
2013-01-05 05:42:00,11.1,-4.3,23.65,SW,225,0.0,0.0,49,0.00,,---,0.00,VWS V14.01,2013-01-05 13:42:00,
2013-01-05 05:47:00,10.9,-4.5,23.65,WSW,248,0.0,0.0,49,0.00,,---,0.00,VWS V14.01,2013-01-05 13:47:00,
2013-01-05 05:52:00,11.1,-4.3,23.65,West,270,0.0,0.0,49,0.00,,---,0.00,VWS V14.01,2013-01-05 13:52:00,
2013-01-05 05:57:00,11.1,-4.3,23.68,WNW,292,0.0,0.0,49,0.00,,---,0.00,VWS V14.01,2013-01-05 13:57:00,
2013-01-05 06:02:00,11.1,-4.3,23.68,WSW,248,0.0,0.0,49,0.00,,---,0.00,VWS V14.01,2013-01-05 14:02:00,
2013-01-05 06:07:00,11.1,-4.3,23.68,WSW,248,0.0,0.0,49,0.00,,---,0.00,VWS V14.01,2013-01-05 14:07:00,
2013-01-05 06:12:00,11.1,-4.3,23.68,WSW,248,0.0,0.0,49,0.00,,---,0.00,VWS V14.01,2013-01-05 14:12:00,
2013-01-05 06:17:00,11.1,-4.3,23.68,WSW,248,0.0,0.0,49,0.00,,---,0.00,VWS V14.01,2013-01-05 14:17:00,
2013-01-05 06:22:00,11.3,-4.1,23.68,WSW,248,0.0,0.0,49,0.00,,---,0.00,VWS V14.01,2013-01-05 14:22:00,
2013-01-05 06:27:00,11.3,-4.1,23.68,SW,225,0.0,0.0,49,0.00,,---,0.00,VWS V14.01,2013-01-05 14:27:00,
2013-01-05 06:32:00,11.5,-4.0,23.68,WNW,292,0.0,0.0,49,0.00,,---,0.00,VWS V14.01,2013-01-05 14:32:00,
2013-01-05 06:37:00,11.5,-4.0,23.68,WNW,292,0.0,0.0,49,0.00,,---,0.00,VWS V14.01,2013-01-05 14:37:00,
2013-01-05 06:42:00,11.7,-3.8,23.68,WSW,248,0.0,0.0,49,0.00,,---,0.00,VWS V14.01,2013-01-05 14:42:00,
2013-01-05 06:47:00,11.7,-3.8,23.68,SSW,202,0.0,0.0,49,0.00,,---,0.00,VWS V14.01,2013-01-05 14:47:00,
2013-01-05 06:52:00,11.7,-3.8,23.68,SSW,202,0.0,0.0,49,0.00,,---,0.00,VWS V14.01,2013-01-05 14:52:00,
2013-01-05 06:57:00,11.7,-3.8,23.68,WSW,248,0.0,0.0,49,0.00,,---,0.00,VWS V14.01,2013-01-05 14:57:00,
2013-01-05 07:02:00,11.7,-3.8,23.68,WSW,248,0.0,0.0,49,0.00,,---,0.00,VWS V14.01,2013-01-05 15:02:00,
2013-01-05 07:07:00,11.7,-3.8,23.68,WSW,248,0.0,0.0,49,0.00,,---,0.00,VWS V14.01,2013-01-05 15:07:00,
2013-01-05 07:12:00,11.7,-3.8,23.68,SSW,202,0.0,0.0,49,0.00,,---,0.00,VWS V14.01,2013-01-05 15:12:00,
2013-01-05 07:17:00,11.8,-3.6,23.68,SSW,202,0.0,0.0,49,0.00,,---,0.00,VWS V14.01,2013-01-05 15:17:00,
2013-01-05 07:22:00,12.0,-3.5,23.68,SW,225,0.0,0.0,49,0.00,,---,0.00,VWS V14.01,2013-01-05 15:22:00,
2013-01-05 07:27:00,12.0,-3.5,23.68,SSW,202,0.0,0.0,49,0.00,,---,0.00,VWS V14.01,2013-01-05 15:27:00,
2013-01-05 07:32:00,12.4,-3.1,23.68,WSW,248,0.0,0.0,49,0.00,,---,0.00,VWS V14.01,2013-01-05 15:32:00,
2013-01-05 07:37:00,12.6,-3.0,23.68,WSW,248,0.0,0.0,49,0.00,,---,0.00,VWS V14.01,2013-01-05 15:37:00,
2013-01-05 07:42:00,12.7,-2.8,23.68,WSW,248,0.0,0.0,49,0.00,,---,0.00,VWS V14.01,2013-01-05 15:42:00,
2013-01-05 07:47:00,12.9,-2.6,23.68,West,270,0.0,0.0,49,0.00,,---,0.00,VWS V14.01,2013-01-05 15:47:00,
2013-01-05 07:52:00,13.5,-2.1,23.68,WSW,248,0.0,0.0,49,0.00,,---,0.00,VWS V14.01,2013-01-05 15:52:00,
2013-01-05 07:57:00,13.8,-1.8,23.68,WSW,248,0.0,0.0,49,0.00,,---,0.00,VWS V14.01,2013-01-05 15:57:00,
2013-01-05 08:02:00,14.5,2.5,23.68,SSW,202,0.0,0.0,58,0.00,,---,0.00,VWS V14.01,2013-01-05 16:02:00,
2013-01-05 08:07:00,15.3,3.2,23.68,SSW,202,0.0,0.0,58,0.00,,---,0.00,VWS V14.01,2013-01-05 16:07:00,
2013-01-05 08:12:00,16.7,4.5,23.68,SSW,202,0.0,0.0,58,0.00,,---,0.00,VWS V14.01,2013-01-05 16:12:00,
2013-01-05 08:17:00,18.1,6.2,23.68,WSW,248,0.0,0.0,59,0.00,,---,0.00,VWS V14.01,2013-01-05 16:17:00,
2013-01-05 08:22:00,19.6,7.2,23.68,WSW,248,0.0,0.0,58,0.00,,---,0.00,VWS V14.01,2013-01-05 16:22:00,
2013-01-05 08:27:00,21.0,8.6,23.68,WSW,248,0.0,0.0,58,0.00,,---,0.00,VWS V14.01,2013-01-05 16:27:00,
2013-01-05 08:32:00,22.3,9.0,23.68,SW,225,0.0,0.0,56,0.00,,---,0.00,VWS V14.01,2013-01-05 16:32:00,
2013-01-05 08:37:00,23.5,9.4,23.68,WSW,248,0.0,0.0,54,0.00,,---,0.00,VWS V14.01,2013-01-05 16:37:00,
2013-01-05 08:42:00,24.6,9.9,23.68,WSW,248,0.0,0.0,53,0.00,,---,0.00,VWS V14.01,2013-01-05 16:42:00,
2013-01-05 08:47:00,25.3,8.9,23.68,WSW,248,0.0,0.0,49,0.00,,---,0.00,VWS V14.01,2013-01-05 16:47:00,
2013-01-05 08:52:00,26.4,8.5,23.68,WSW,248,0.0,0.0,46,0.00,,---,0.00,VWS V14.01,2013-01-05 16:52:00,
2013-01-05 08:57:00,27.5,8.5,23.68,WSW,248,0.0,0.0,44,0.00,,---,0.00,VWS V14.01,2013-01-05 16:57:00,
2013-01-05 09:02:00,28.2,9.1,23.68,WSW,248,0.0,0.0,44,0.00,,---,0.00,VWS V14.01,2013-01-05 17:02:00,
2013-01-05 09:07:00,29.1,9.9,23.68,WSW,248,0.0,0.0,44,0.00,,---,0.00,VWS V14.01,2013-01-05 17:07:00,
2013-01-05 09:12:00,30.2,10.9,23.68,SSW,202,0.0,0.0,44,0.00,,---,0.00,VWS V14.01,2013-01-05 17:12:00,
2013-01-05 09:17:00,31.1,11.2,23.68,SW,225,0.0,0.0,43,0.00,,---,0.00,VWS V14.01,2013-01-05 17:17:00,
2013-01-05 09:22:00,32.0,11.0,23.68,WSW,248,0.0,0.0,41,0.00,,---,0.00,VWS V14.01,2013-01-05 17:22:00,
2013-01-05 09:27:00,33.1,12.0,23.68,WSW,248,0.0,0.0,41,0.00,,---,0.00,VWS V14.01,2013-01-05 17:27:00,
2013-01-05 09:32:00,33.8,12.1,23.68,WSW,248,0.0,0.0,40,0.00,,---,0.00,VWS V14.01,2013-01-05 17:32:00,
2013-01-05 09:37:00,34.9,13.0,23.68,WSW,248,0.0,0.0,40,0.00,,---,0.00,VWS V14.01,2013-01-05 17:37:00,
2013-01-05 09:42:00,35.6,13.1,23.68,WSW,248,0.0,0.0,39,0.00,,---,0.00,VWS V14.01,2013-01-05 17:42:00,
2013-01-05 09:47:00,36.3,13.2,23.68,WSW,248,0.0,0.0,38,0.00,,---,0.00,VWS V14.01,2013-01-05 17:47:00,
2013-01-05 09:52:00,37.0,13.2,23.68,WSW,248,0.0,0.0,37,0.00,,---,0.00,VWS V14.01,2013-01-05 17:52:00,
2013-01-05 09:57:00,38.5,15.1,23.68,WSW,248,0.0,0.0,38,0.00,,---,0.00,VWS V14.01,2013-01-05 17:57:00,
2013-01-05 10:02:00,40.3,16.1,23.68,SSE,158,0.0,0.0,37,0.00,,---,0.00,VWS V14.01,2013-01-05 18:02:00,
2013-01-05 10:07:00,42.1,17.7,23.68,South,180,0.0,0.0,37,0.00,,---,0.00,VWS V14.01,2013-01-05 18:07:00,
2013-01-05 10:12:00,44.1,17.5,23.68,SSW,202,0.0,0.0,34,0.00,,---,0.00,VWS V14.01,2013-01-05 18:12:00,
2013-01-05 10:17:00,45.0,17.6,23.68,SSW,202,0.0,0.0,33,0.00,,---,0.00,VWS V14.01,2013-01-05 18:17:00,
2013-01-05 10:22:00,45.5,15.1,23.68,WSW,248,0.0,0.0,29,0.00,,---,0.00,VWS V14.01,2013-01-05 18:22:00,
2013-01-05 10:28:00,46.4,15.1,23.68,North,0,5.4,5.6,28,0.00,,---,0.00,VWS V14.01,2013-01-05 18:28:00,
2013-01-05 10:34:00,46.9,14.7,23.68,ENE,68,3.1,3.1,27,0.00,,---,0.00,VWS V14.01,2013-01-05 18:34:00,
2013-01-05 10:39:00,47.3,15.0,23.68,NNE,22,3.6,6.0,27,0.00,,---,0.00,VWS V14.01,2013-01-05 18:39:00,
2013-01-05 10:44:00,47.1,12.2,23.68,North,0,1.1,1.6,24,0.00,,---,0.00,VWS V14.01,2013-01-05 18:44:00,
2013-01-05 10:49:00,47.3,12.4,23.68,NE,45,5.4,5.4,24,0.00,,---,0.00,VWS V14.01,2013-01-05 18:49:00,
2013-01-05 10:54:00,47.7,12.7,23.68,NNW,338,4.3,5.8,24,0.00,,---,0.00,VWS V14.01,2013-01-05 18:54:00,
2013-01-05 10:59:00,47.7,10.7,23.68,ENE,68,5.4,6.3,22,0.00,,---,0.00,VWS V14.01,2013-01-05 18:59:00,
2013-01-05 11:04:00,47.7,10.7,23.68,NE,45,4.0,6.0,22,0.00,,---,0.00,VWS V14.01,2013-01-05 19:04:00,
2013-01-05 11:09:00,48.0,11.0,23.65,North,0,3.8,5.4,22,0.00,,---,0.00,VWS V14.01,2013-01-05 19:09:00,
2013-01-05 11:14:00,48.2,10.1,23.65,North,0,2.5,2.5,21,0.00,,---,0.00,VWS V14.01,2013-01-05 19:14:00,
2013-01-05 11:19:00,48.4,10.3,23.65,NE,45,2.0,5.4,21,0.00,,---,0.00,VWS V14.01,2013-01-05 19:19:00,
2013-01-05 11:24:00,48.4,10.3,23.65,North,0,4.3,4.3,21,0.00,,---,0.00,VWS V14.01,2013-01-05 19:24:00,
2013-01-05 11:29:00,48.6,10.4,23.65,North,0,4.0,4.7,21,0.00,,---,0.00,VWS V14.01,2013-01-05 19:29:00,
2013-01-05 11:34:00,48.7,10.6,23.65,NNE,22,5.4,7.4,21,0.00,,---,0.00,VWS V14.01,2013-01-05 19:34:00,
2013-01-05 11:39:00,48.6,10.4,23.65,NE,45,4.9,5.8,21,0.00,,---,0.00,VWS V14.01,2013-01-05 19:39:00,
2013-01-05 11:44:00,48.6,10.4,23.65,North,0,6.3,9.2,21,0.00,,---,0.00,VWS V14.01,2013-01-05 19:44:00,
2013-01-05 11:49:00,48.0,11.0,23.65,NNE,22,4.7,7.2,22,0.00,,---,0.00,VWS V14.01,2013-01-05 19:49:00,
2013-01-05 11:54:00,47.7,10.7,23.65,NW,315,4.7,5.6,22,0.00,,---,0.00,VWS V14.01,2013-01-05 19:54:00,
2013-01-05 11:59:00,47.7,10.7,23.65,NE,45,6.0,7.8,22,0.00,,---,0.00,VWS V14.01,2013-01-05 19:59:00,
2013-01-05 12:04:00,48.0,11.0,23.65,North,0,3.4,6.0,22,0.00,,---,0.00,VWS V14.01,2013-01-05 20:04:00,
2013-01-05 12:09:00,48.2,10.1,23.65,NNW,338,4.9,6.5,21,0.00,,---,0.00,VWS V14.01,2013-01-05 20:09:00,
2013-01-05 12:14:00,48.2,10.1,23.65,NE,45,6.0,6.0,21,0.00,,---,0.00,VWS V14.01,2013-01-05 20:14:00,
2013-01-05 12:19:00,48.2,10.1,23.65,NE,45,2.2,4.9,21,0.00,,---,0.00,VWS V14.01,2013-01-05 20:19:00,
2013-01-05 12:24:00,48.2,10.1,23.65,NE,45,7.6,8.1,21,0.00,,---,0.00,VWS V14.01,2013-01-05 20:24:00,
2013-01-05 12:29:00,48.2,10.1,23.65,NNE,22,2.9,6.3,21,0.00,,---,0.00,VWS V14.01,2013-01-05 20:29:00,
2013-01-05 12:34:00,47.8,10.9,23.65,NNW,338,3.6,7.2,22,0.00,,---,0.00,VWS V14.01,2013-01-05 20:34:00,
2013-01-05 12:39:00,47.8,10.9,23.65,NE,45,3.8,5.4,22,0.00,,---,0.00,VWS V14.01,2013-01-05 20:39:00,
2013-01-05 12:44:00,47.8,10.9,23.65,NNW,338,6.0,8.1,22,0.00,,---,0.00,VWS V14.01,2013-01-05 20:44:00,
2013-01-05 12:49:00,47.8,10.9,23.65,NNE,22,6.5,6.5,22,0.00,,---,0.00,VWS V14.01,2013-01-05 20:49:00,
2013-01-05 12:54:00,47.3,10.4,23.65,NE,45,4.7,7.8,22,0.00,,---,0.00,VWS V14.01,2013-01-05 20:54:00,
2013-01-05 12:59:00,47.1,10.2,23.65,NNE,22,7.2,7.2,22,0.00,,---,0.00,VWS V14.01,2013-01-05 20:59:00,
2013-01-05 13:04:00,46.9,10.1,23.65,NNE,22,4.0,6.5,22,0.00,,---,0.00,VWS V14.01,2013-01-05 21:04:00,
2013-01-05 13:09:00,46.8,9.9,23.65,NE,45,3.1,8.5,22,0.00,,---,0.00,VWS V14.01,2013-01-05 21:09:00,
2013-01-05 13:14:00,46.6,6.5,23.65,NNE,22,4.3,4.9,19,0.00,,---,0.00,VWS V14.01,2013-01-05 21:14:00,
2013-01-05 13:19:00,46.4,9.6,23.65,NNE,22,6.5,8.1,22,0.00,,---,0.00,VWS V14.01,2013-01-05 21:19:00,
2013-01-05 13:24:00,46.2,9.5,23.65,NNE,22,4.9,8.5,22,0.00,,---,0.00,VWS V14.01,2013-01-05 21:24:00,
2013-01-05 13:29:00,46.2,7.4,23.65,NNE,22,6.3,6.3,20,0.00,,---,0.00,VWS V14.01,2013-01-05 21:29:00,
2013-01-05 13:34:00,46.0,7.2,23.65,NNE,22,5.4,5.4,20,0.00,,---,0.00,VWS V14.01,2013-01-05 21:34:00,
2013-01-05 13:39:00,46.2,7.4,23.65,North,0,3.4,5.6,20,0.00,,---,0.00,VWS V14.01,2013-01-05 21:39:00,
2013-01-05 13:44:00,46.0,9.3,23.65,NE,45,4.0,6.0,22,0.00,,---,0.00,VWS V14.01,2013-01-05 21:44:00,
2013-01-05 13:49:00,46.4,9.6,23.65,NNW,338,3.8,6.3,22,0.00,,---,0.00,VWS V14.01,2013-01-05 21:49:00,
2013-01-05 13:54:00,46.4,9.6,23.65,North,0,3.6,3.8,22,0.00,,---,0.00,VWS V14.01,2013-01-05 21:54:00,
2013-01-05 13:59:00,46.6,9.8,23.65,NNW,338,3.8,3.8,22,0.00,,---,0.00,VWS V14.01,2013-01-05 21:59:00,
2013-01-05 14:04:00,46.6,9.8,23.65,NNE,22,4.3,5.8,22,0.00,,---,0.00,VWS V14.01,2013-01-05 22:04:00,
2013-01-05 14:09:00,46.4,9.6,23.62,NNW,338,5.4,6.3,22,0.00,,---,0.00,VWS V14.01,2013-01-05 22:09:00,
2013-01-05 14:14:00,46.2,7.4,23.62,North,0,6.0,8.5,20,0.00,,---,0.00,VWS V14.01,2013-01-05 22:14:00,
2013-01-05 14:19:00,46.0,7.2,23.62,NNW,338,5.4,5.4,20,0.00,,---,0.00,VWS V14.01,2013-01-05 22:19:00,
2013-01-05 14:24:00,46.0,7.2,23.62,NNE,22,2.7,5.8,20,0.00,,---,0.00,VWS V14.01,2013-01-05 22:24:00,
2013-01-05 14:29:00,46.0,9.3,23.62,ENE,68,0.9,6.0,22,0.00,,---,0.00,VWS V14.01,2013-01-05 22:29:00,
2013-01-05 14:34:00,46.0,7.2,23.62,NNE,22,5.6,6.9,20,0.00,,---,0.00,VWS V14.01,2013-01-05 22:34:00,
2013-01-05 14:39:00,45.5,6.8,23.62,North,0,2.0,3.1,20,0.00,,---,0.00,VWS V14.01,2013-01-05 22:39:00,
2013-01-05 14:44:00,45.1,6.5,23.62,NNE,22,2.0,2.9,20,0.00,,---,0.00,VWS V14.01,2013-01-05 22:44:00,
2013-01-05 14:49:00,45.1,6.5,23.62,NNE,22,1.6,3.8,20,0.00,,---,0.00,VWS V14.01,2013-01-05 22:49:00,
2013-01-05 14:54:00,45.0,6.3,23.62,NNE,22,3.4,3.4,20,0.00,,---,0.00,VWS V14.01,2013-01-05 22:54:00,
2013-01-05 14:59:00,44.8,6.2,23.62,North,0,6.5,6.5,20,0.00,,---,0.00,VWS V14.01,2013-01-05 22:59:00,
2013-01-05 15:04:00,44.6,6.0,23.62,NNE,22,2.2,4.0,20,0.00,,---,0.00,VWS V14.01,2013-01-05 23:04:00,
2013-01-05 15:09:00,44.4,5.9,23.62,NNE,22,2.2,2.9,20,0.00,,---,0.00,VWS V14.01,2013-01-05 23:09:00,
2013-01-05 15:14:00,44.1,5.6,23.62,NNW,338,3.6,3.6,20,0.00,,---,0.00,VWS V14.01,2013-01-05 23:14:00,
2013-01-05 15:19:00,44.1,5.6,23.62,NNW,338,2.9,4.7,20,0.00,,---,0.00,VWS V14.01,2013-01-05 23:19:00,
2013-01-05 15:24:00,44.2,5.7,23.62,NE,45,2.5,5.4,20,0.00,,---,0.00,VWS V14.01,2013-01-05 23:24:00,
2013-01-05 15:30:00,44.1,5.6,23.62,NNE,22,4.3,4.3,20,0.00,,---,0.00,VWS V14.01,2013-01-05 23:30:00,
2013-01-05 15:35:00,43.9,5.4,23.62,ENE,68,3.8,5.4,20,0.00,,---,0.00,VWS V14.01,2013-01-05 23:35:00,
2013-01-05 15:40:00,43.7,5.3,23.62,NNE,22,4.3,4.3,20,0.00,,---,0.00,VWS V14.01,2013-01-05 23:40:00,
2013-01-05 15:45:00,43.7,5.3,23.62,NNW,338,1.6,2.5,20,0.00,,---,0.00,VWS V14.01,2013-01-05 23:45:00,
2013-01-05 15:50:00,43.5,5.1,23.62,NE,45,2.0,3.4,20,0.00,,---,0.00,VWS V14.01,2013-01-05 23:50:00,
2013-01-05 15:55:00,43.0,4.7,23.62,ENE,68,1.6,3.1,20,0.00,,---,0.00,VWS V14.01,2013-01-05 23:55:00,
2013-01-05 16:00:00,42.6,5.4,23.62,NNE,22,3.1,3.1,21,0.00,,---,0.00,VWS V14.01,2013-01-06 00:00:00,
2013-01-05 16:05:00,42.4,5.3,23.62,NNE,22,1.1,2.0,21,0.00,,---,0.00,VWS V14.01,2013-01-06 00:05:00,
2013-01-05 16:10:00,41.9,4.8,23.65,North,0,0.0,1.3,21,0.00,,---,0.00,VWS V14.01,2013-01-06 00:10:00,
2013-01-05 16:15:00,41.2,4.2,23.65,NNW,338,0.0,0.0,21,0.00,,---,0.00,VWS V14.01,2013-01-06 00:15:00,
2013-01-05 16:20:00,40.8,3.9,23.65,NNW,338,0.0,1.1,21,0.00,,---,0.00,VWS V14.01,2013-01-06 00:20:00,
2013-01-05 16:25:00,40.5,3.6,23.65,SW,225,0.0,0.0,21,0.00,,---,0.00,VWS V14.01,2013-01-06 00:25:00,
2013-01-05 16:30:00,39.7,3.0,23.65,NW,315,0.0,0.0,21,0.00,,---,0.00,VWS V14.01,2013-01-06 00:30:00,
2013-01-05 16:35:00,39.0,5.3,23.65,NNE,22,0.0,0.0,24,0.00,,---,0.00,VWS V14.01,2013-01-06 00:35:00,
2013-01-05 16:40:00,38.1,4.5,23.65,NNE,22,0.0,0.0,24,0.00,,---,0.00,VWS V14.01,2013-01-06 00:40:00,
2013-01-05 16:45:00,36.9,3.5,23.65,NNE,22,0.0,0.0,24,0.00,,---,0.00,VWS V14.01,2013-01-06 00:45:00,
2013-01-05 16:50:00,35.8,2.5,23.65,NNE,22,0.0,1.1,24,0.00,,---,0.00,VWS V14.01,2013-01-06 00:50:00,
2013-01-05 16:55:00,34.5,4.0,23.65,ENE,68,1.1,2.0,27,0.00,,---,0.00,VWS V14.01,2013-01-06 00:55:00,
2013-01-05 17:00:00,34.0,5.8,23.65,NE,45,0.0,0.0,30,0.00,,---,0.00,VWS V14.01,2013-01-06 01:00:00,
2013-01-05 17:05:00,33.3,5.2,23.65,NE,45,0.0,0.0,30,0.00,,---,0.00,VWS V14.01,2013-01-06 01:05:00,
2013-01-05 17:10:00,32.4,4.4,23.65,NE,45,2.9,2.9,30,0.00,,---,0.00,VWS V14.01,2013-01-06 01:10:00,
2013-01-05 17:16:00,31.8,3.9,23.65,North,0,0.0,0.0,30,0.00,,---,0.00,VWS V14.01,2013-01-06 01:16:00,
2013-01-05 17:21:00,31.5,3.6,23.65,SSE,158,0.0,0.0,30,0.00,,---,0.00,VWS V14.01,2013-01-06 01:21:00,
2013-01-05 17:26:00,31.3,3.5,23.65,NE,45,0.0,0.0,30,0.00,,---,0.00,VWS V14.01,2013-01-06 01:26:00,
2013-01-05 17:31:00,30.6,2.8,23.65,NE,45,0.0,0.0,30,0.00,,---,0.00,VWS V14.01,2013-01-06 01:31:00,
2013-01-05 17:36:00,30.7,6.3,23.65,NNE,22,0.0,0.0,35,0.00,,---,0.00,VWS V14.01,2013-01-06 01:36:00,
2013-01-05 17:41:00,30.4,4.1,23.65,North,0,0.0,0.0,32,0.00,,---,0.00,VWS V14.01,2013-01-06 01:41:00,
2013-01-05 17:46:00,29.8,3.6,23.65,NE,45,0.0,0.0,32,0.00,,---,0.00,VWS V14.01,2013-01-06 01:46:00,
2013-01-05 17:51:00,29.7,3.4,23.65,SE,135,0.0,2.5,32,0.00,,---,0.00,VWS V14.01,2013-01-06 01:51:00,
2013-01-05 17:56:00,29.5,3.3,23.65,NNE,22,0.0,0.0,32,0.00,,---,0.00,VWS V14.01,2013-01-06 01:56:00,
2013-01-05 18:01:00,29.1,3.6,23.65,NNE,22,2.0,2.0,33,0.00,,---,0.00,VWS V14.01,2013-01-06 02:01:00,
2013-01-05 18:06:00,28.9,3.5,23.65,NNW,338,0.0,0.0,33,0.00,,---,0.00,VWS V14.01,2013-01-06 02:06:00,
2013-01-05 18:11:00,28.9,3.5,23.65,ESE,112,0.0,0.0,33,0.00,,---,0.00,VWS V14.01,2013-01-06 02:11:00,
2013-01-05 18:16:00,29.1,3.6,23.65,SW,225,0.0,0.0,33,0.00,,---,0.00,VWS V14.01,2013-01-06 02:16:00,
2013-01-05 18:21:00,29.1,3.6,23.65,WSW,248,0.0,1.6,33,0.00,,---,0.00,VWS V14.01,2013-01-06 02:21:00,
2013-01-05 18:27:00,29.3,3.8,23.65,SSE,158,2.5,3.4,33,0.00,,---,0.00,VWS V14.01,2013-01-06 02:27:00,
2013-01-05 18:32:00,29.1,3.6,23.65,SSW,202,0.0,0.0,33,0.00,,---,0.00,VWS V14.01,2013-01-06 02:32:00,
2013-01-05 18:37:00,28.8,3.3,23.65,West,270,0.0,0.0,33,0.00,,---,0.00,VWS V14.01,2013-01-06 02:37:00,
2013-01-05 18:42:00,28.4,3.6,23.65,South,180,0.0,0.0,34,0.00,,---,0.00,VWS V14.01,2013-01-06 02:42:00,
2013-01-05 18:47:00,28.8,3.3,23.65,SE,135,0.0,0.0,33,0.00,,---,0.00,VWS V14.01,2013-01-06 02:47:00,
2013-01-05 18:52:00,28.9,3.5,23.65,SW,225,0.0,0.0,33,0.00,,---,0.00,VWS V14.01,2013-01-06 02:52:00,
2013-01-05 18:57:00,28.4,3.6,23.65,WSW,248,0.0,0.9,34,0.00,,---,0.00,VWS V14.01,2013-01-06 02:57:00,
2013-01-05 19:02:00,27.9,3.2,23.65,SSW,202,0.0,0.0,34,0.00,,---,0.00,VWS V14.01,2013-01-06 03:02:00,
2013-01-05 19:07:00,27.7,3.0,23.65,SSW,202,0.0,0.0,34,0.00,,---,0.00,VWS V14.01,2013-01-06 03:07:00,
2013-01-05 19:12:00,27.5,3.5,23.65,SW,225,0.0,1.1,35,0.00,,---,0.00,VWS V14.01,2013-01-06 03:12:00,
2013-01-05 19:17:00,27.3,2.7,23.65,SSW,202,0.0,0.0,34,0.00,,---,0.00,VWS V14.01,2013-01-06 03:17:00,
2013-01-05 19:22:00,27.5,3.5,23.65,SW,225,0.0,0.0,35,0.00,,---,0.00,VWS V14.01,2013-01-06 03:22:00,
2013-01-05 19:27:00,27.5,3.5,23.65,SSW,202,0.0,0.0,35,0.00,,---,0.00,VWS V14.01,2013-01-06 03:27:00,
2013-01-05 19:32:00,27.5,3.5,23.65,SSW,202,0.0,0.0,35,0.00,,---,0.00,VWS V14.01,2013-01-06 03:32:00,
2013-01-05 19:37:00,27.5,3.5,23.65,SSW,202,0.0,0.0,35,0.00,,---,0.00,VWS V14.01,2013-01-06 03:37:00,
2013-01-05 19:42:00,28.0,5.1,23.62,SE,135,2.7,3.6,37,0.00,,---,0.00,VWS V14.01,2013-01-06 03:42:00,
2013-01-05 19:47:00,28.9,5.9,23.62,South,180,4.9,4.9,37,0.00,,---,0.00,VWS V14.01,2013-01-06 03:47:00,
2013-01-05 19:52:00,29.1,6.1,23.62,SE,135,0.0,0.0,37,0.00,,---,0.00,VWS V14.01,2013-01-06 03:52:00,
2013-01-05 19:57:00,29.5,6.4,23.62,SW,225,3.1,3.8,37,0.00,,---,0.00,VWS V14.01,2013-01-06 03:57:00,
2013-01-05 20:02:00,29.5,5.8,23.62,South,180,0.0,0.0,36,0.00,,---,0.00,VWS V14.01,2013-01-06 04:02:00,
2013-01-05 20:07:00,30.0,6.3,23.62,SSW,202,0.0,2.9,36,0.00,,---,0.00,VWS V14.01,2013-01-06 04:07:00,
2013-01-05 20:12:00,30.0,6.3,23.62,SSW,202,0.0,0.0,36,0.00,,---,0.00,VWS V14.01,2013-01-06 04:12:00,
2013-01-05 20:17:00,29.8,5.5,23.62,SE,135,0.0,0.0,35,0.00,,---,0.00,VWS V14.01,2013-01-06 04:17:00,
2013-01-05 20:22:00,29.8,5.5,23.62,SSE,158,0.0,0.0,35,0.00,,---,0.00,VWS V14.01,2013-01-06 04:22:00,
2013-01-05 20:27:00,29.5,5.2,23.62,SSW,202,0.0,0.0,35,0.00,,---,0.00,VWS V14.01,2013-01-06 04:27:00,
2013-01-05 20:32:00,29.3,5.1,23.62,SSW,202,0.0,0.0,35,0.00,,---,0.00,VWS V14.01,2013-01-06 04:32:00,
2013-01-05 20:37:00,29.5,4.6,23.62,NE,45,0.0,0.0,34,0.00,,---,0.00,VWS V14.01,2013-01-06 04:37:00,
2013-01-05 20:42:00,29.5,4.6,23.65,South,180,0.0,0.0,34,0.00,,---,0.00,VWS V14.01,2013-01-06 04:42:00,
2013-01-05 20:47:00,29.3,4.4,23.65,SSE,158,0.0,1.3,34,0.00,,---,0.00,VWS V14.01,2013-01-06 04:47:00,
2013-01-05 20:52:00,29.5,4.6,23.65,SSW,202,0.0,0.0,34,0.00,,---,0.00,VWS V14.01,2013-01-06 04:52:00,
2013-01-05 20:57:00,29.1,4.3,23.65,SW,225,0.0,0.0,34,0.00,,---,0.00,VWS V14.01,2013-01-06 04:57:00,
2013-01-05 21:01:00,29.3,4.4,23.65,SSE,158,0.0,0.0,34,0.00,,---,0.00,VWS V14.01,2013-01-06 05:01:00,
2013-01-05 21:02:00,29.5,4.6,23.65,SSW,202,0.0,0.0,34,0.00,,---,0.00,VWS V14.01,2013-01-06 05:02:00,
2013-01-05 21:07:00,29.7,4.7,23.65,South,180,4.3,4.3,34,0.00,,---,0.00,VWS V14.01,2013-01-06 05:07:00,
2013-01-05 21:13:00,30.2,5.2,23.65,WSW,248,0.0,3.1,34,0.00,,---,0.00,VWS V14.01,2013-01-06 05:13:00,
2013-01-05 21:18:00,30.2,5.2,23.65,SSW,202,0.0,2.0,34,0.00,,---,0.00,VWS V14.01,2013-01-06 05:18:00,
2013-01-05 21:23:00,30.2,5.2,23.62,SSE,158,2.9,2.9,34,0.00,,---,0.00,VWS V14.01,2013-01-06 05:23:00,
2013-01-05 21:28:00,30.2,5.2,23.62,SSE,158,4.5,4.5,34,0.00,,---,0.00,VWS V14.01,2013-01-06 05:28:00,
2013-01-05 21:33:00,31.3,5.5,23.62,SSE,158,0.0,0.0,33,0.00,,---,0.00,VWS V14.01,2013-01-06 05:33:00,
2013-01-05 21:38:00,31.6,5.8,23.62,SE,135,3.6,4.9,33,0.00,,---,0.00,VWS V14.01,2013-01-06 05:38:00,
2013-01-05 21:43:00,32.2,6.3,23.62,SSE,158,1.6,3.6,33,0.00,,---,0.00,VWS V14.01,2013-01-06 05:43:00,
2013-01-05 21:48:00,32.7,6.8,23.62,SE,135,2.2,2.2,33,0.00,,---,0.00,VWS V14.01,2013-01-06 05:48:00,
2013-01-05 21:53:00,32.7,6.8,23.62,SSE,158,2.9,3.6,33,0.00,,---,0.00,VWS V14.01,2013-01-06 05:53:00,
2013-01-05 21:58:00,33.1,7.1,23.62,SSE,158,5.4,5.4,33,0.00,,---,0.00,VWS V14.01,2013-01-06 05:58:00,
2013-01-05 22:03:00,33.3,7.3,23.62,SSE,158,7.2,7.2,33,0.00,,---,0.00,VWS V14.01,2013-01-06 06:03:00,
2013-01-05 22:08:00,33.6,6.9,23.62,SSE,158,8.7,11.0,32,0.00,,---,0.00,VWS V14.01,2013-01-06 06:08:00,
2013-01-05 22:13:00,33.6,6.9,23.62,SSE,158,6.9,7.8,32,0.00,,---,0.00,VWS V14.01,2013-01-06 06:13:00,
2013-01-05 22:18:00,34.0,6.5,23.62,SE,135,7.6,10.5,31,0.00,,---,0.00,VWS V14.01,2013-01-06 06:18:00,
2013-01-05 22:23:00,33.8,6.4,23.59,SSE,158,6.3,8.5,31,0.00,,---,0.00,VWS V14.01,2013-01-06 06:23:00,
2013-01-05 22:28:00,33.8,6.4,23.59,SE,135,7.4,11.0,31,0.00,,---,0.00,VWS V14.01,2013-01-06 06:28:00,
2013-01-05 22:33:00,34.2,6.7,23.59,ESE,112,9.8,10.7,31,0.00,,---,0.00,VWS V14.01,2013-01-06 06:33:00,
2013-01-05 22:38:00,34.5,7.0,23.59,SSW,202,0.9,7.6,31,0.00,,---,0.00,VWS V14.01,2013-01-06 06:38:00,
2013-01-05 22:43:00,34.2,6.7,23.59,SE,135,3.1,3.1,31,0.00,,---,0.00,VWS V14.01,2013-01-06 06:43:00,
2013-01-05 22:48:00,34.0,6.5,23.59,SSE,158,4.3,5.8,31,0.00,,---,0.00,VWS V14.01,2013-01-06 06:48:00,
2013-01-05 22:53:00,33.8,6.4,23.59,SE,135,0.9,3.1,31,0.00,,---,0.00,VWS V14.01,2013-01-06 06:53:00,
2013-01-05 22:58:00,33.6,6.2,23.59,SE,135,5.6,6.3,31,0.00,,---,0.00,VWS V14.01,2013-01-06 06:58:00,
2013-01-05 23:03:00,33.4,6.1,23.59,SSW,202,8.1,8.1,31,0.00,,---,0.00,VWS V14.01,2013-01-06 07:03:00,
2013-01-05 23:08:00,33.6,6.2,23.59,SSW,202,4.0,5.4,31,0.00,,---,0.00,VWS V14.01,2013-01-06 07:08:00,
2013-01-05 23:13:00,33.6,6.2,23.59,South,180,0.0,7.8,31,0.00,,---,0.00,VWS V14.01,2013-01-06 07:13:00,
2013-01-05 23:18:00,33.3,5.9,23.59,SSW,202,1.6,4.9,31,0.00,,---,0.00,VWS V14.01,2013-01-06 07:18:00,
2013-01-05 23:23:00,32.9,5.6,23.59,SSE,158,5.8,5.8,31,0.00,,---,0.00,VWS V14.01,2013-01-06 07:23:00,
2013-01-05 23:28:00,32.9,6.3,23.59,WSW,248,4.0,7.8,32,0.00,,---,0.00,VWS V14.01,2013-01-06 07:28:00,
2013-01-05 23:33:00,32.5,6.0,23.59,SSE,158,3.1,5.4,32,0.00,,---,0.00,VWS V14.01,2013-01-06 07:33:00,
2013-01-05 23:38:00,32.4,5.8,23.56,SSW,202,3.8,5.6,32,0.00,,---,0.00,VWS V14.01,2013-01-06 07:38:00,
2013-01-05 23:43:00,32.0,6.2,23.56,SSE,158,4.0,4.0,33,0.00,,---,0.00,VWS V14.01,2013-01-06 07:43:00,
2013-01-05 23:48:00,31.8,6.0,23.56,SSW,202,4.3,4.3,33,0.00,,---,0.00,VWS V14.01,2013-01-06 07:48:00,
2013-01-05 23:53:00,31.6,5.8,23.56,SSW,202,5.6,9.4,33,0.00,,---,0.00,VWS V14.01,2013-01-06 07:53:00,
2013-01-05 23:58:00,31.5,5.7,23.56,SSE,158,1.3,7.2,33,0.00,,---,0.00,VWS V14.01,2013-01-06 07:58:00,